Regional Weather Roundup
Issued by NWS

Home | Current Version | Previous Version | Graphics & Text | Print | Product List | Glossary On
Versions: 1 2 3 4 5 6 7 8 9 10 11 12 13 14 15 16 17 18 19 20 21 22 23 24 25 26 27 28 29 30 31 32 33 34 35 36 37 38 39 40 41 42 43 44 45 46 47 48 49 50
246
ASUS43 KDMX 111206
RWRIA

WEATHER ROUNDUP FOR IOWA
NATIONAL WEATHER SERVICE DES MOINES IA
600 AM CST MON DEC 11 2017

NOTE: "FAIR" INDICATES FEW OR NO CLOUDS BELOW 12,000 FEET WITH NO
SIGNIFICANT WEATHER AND/OR OBSTRUCTIONS TO VISIBILITY.

* - THESE STATIONS ARE NOT NWS STATIONS...THUS NOT UNDER NWS
QUALITY CONTROL.  THEY ALSO DO NOT REPORT WEATHER SUCH
AS PRECIPITATION OR FOG.

IAZ001>003-012>014-020>022-031>034-043>046-111300-
   NORTHWEST IOWA

CITY           SKY/WX    TMP DP  RH WIND       PRES   REMARKS
CARROLL *      CLOUDY    37  21  52 W18G24    29.81R WCI  27
CHEROKEE *     CLOUDY    32  24  71 S6        29.82F WCI  26
DENISON *      CLOUDY    32  21  64 CALM      29.87S
LE MARS *      CLEAR     37  23  56 W14G21    29.85R WCI  29
ORANGE CITY *  CLEAR     37  27  65 W18       29.82R WCI  27
SHELDON *      CLEAR     34  25  69 W21G28    29.79R WCI  22
SIOUX CITY     CLOUDY    37  21  52 W16       29.87F WCI  28
6HR MIN TEMP:  25; 6HR MAX TEMP:  37;

SPENCER        CLEAR     34  24  67 W17       29.78F WCI  23
6HR MIN TEMP:  28; 6HR MAX TEMP:  35;

STORM LAKE *   CLOUDY    34  21  60 W16       29.80F WCI  23
$$

IAZ055>058-069>071-079>083-090>094-111300-
   SOUTHWEST IOWA

CITY           SKY/WX    TMP DP  RH WIND       PRES   REMARKS
ATLANTIC *     CLOUDY    36  21  55 W9        29.86F WCI  29
AUDUBON *      CLOUDY    34  23  64 W10       29.84F WCI  26
CLARINDA *     CLOUDY    30  21  69 SW5       29.92S WCI  25
COUNCIL BLFS * CLEAR     43  19  39 W14       29.89F
CRESTON *      PTCLDY    34  21  60 W14       29.87F WCI  24
HARLAN  *      CLOUDY    36  21  55 W14       29.89F WCI  27
LAMONI         CLOUDY    37  22  54 W16       29.86F WCI  28
6HR MIN TEMP:  31; 6HR MAX TEMP:  37;

RED OAK *      PTCLDY    28  19  69 SW3       29.89F
SHENANDOAH *   CLOUDY    34  21  60 SW10      29.91F WCI  26
$$

IAZ047>049-059>061-072>074-084-111300-
   CENTRAL IOWA

CITY           SKY/WX    TMP DP  RH WIND       PRES   REMARKS
AMES           MOCLDY    29  24  82 S3        29.80F
6HR MIN TEMP:  27; 6HR MAX TEMP:  32;

ANKENY *       PTCLDY    30  25  80 CALM      29.83F
BOONE *        PTCLDY    34  25  69 SW9       29.78F WCI  26
CHARITON *     PTCLDY    37  25  60 SW8       29.84F WCI  31
DES MOINES     MOCLDY    32  24  72 CALM      29.82F
6HR MIN TEMP:  30; 6HR MAX TEMP:  35;

GRINNELL*      CLOUDY    32  26  77 S10       29.83F WCI  24
KNOXVILLE *    CLOUDY    36  23  60 CALM      29.82F
MARSHALLTOWN   CLOUDY    33  25  72 SW5       29.80F WCI  29
6HR MIN TEMP:  30; 6HR MAX TEMP:  34;

NEWTON *       PTCLDY    30  25  80 S7        29.82F WCI  23
PELLA *        CLOUDY    32  25  74 S7        29.85F WCI  26
PERRY *          N/A     32  22  67 W3        29.81F
$$

IAZ004>006-015-016-023>025-035-036-111300-
   NORTH CENTRAL IOWA

CITY           SKY/WX    TMP DP  RH WIND       PRES   REMARKS
ALGONA *       CLOUDY    30  25  80 S9        29.75F WCI  22
CLARION *      CLOUDY    32  25  74 S3        29.78F
ESTHERVILLE    PTCLDY    33  25  72 SW18      29.72F WCI  22
6HR MIN TEMP:  29; 6HR MAX TEMP:  35;

FORT DODGE *   CLOUDY    32  24  72 SW7       29.79F WCI  26
MASON CITY     CLOUDY    30  23  75 S6        29.77F WCI  24
6HR MIN TEMP:  28; 6HR MAX TEMP:  32;

FOREST CITY *    N/A     32  27  80 CALM      29.77S
WEBSTER CITY * CLOUDY    32  23  69 S12       29.76F WCI  23
IOWA FALLS *     N/A     34  26  72 SW9       29.80F WCI  27
$$

IAZ007>011-017>019-026>030-037>042-050>054-066-111300-
   NORTHEAST IOWA

CITY           SKY/WX    TMP DP  RH WIND       PRES   REMARKS
CEDAR RAPIDS   CLOUDY    31  25  78 S7        29.84F WCI  24
6HR MIN TEMP:  28; 6HR MAX TEMP:  31;

CHARLES CITY * CLOUDY    30  25  80 S9        29.79F WCI  22
CLINTON *      MOCLDY    28  24  85 SE8       29.92R WCI  20
DECORAH *      CLOUDY    27  23  86 S8        29.80F WCI  18
DUBUQUE        CLOUDY    26  22  84 S9        29.87F WCI  17
6HR MIN TEMP:  18; 6HR MAX TEMP:  26;

MONTICELLO *   CLOUDY    28  23  80 SE7       29.85F WCI  21
OELWEIN *      CLOUDY    28  27  93 S10       29.83F WCI  19
WATERLOO       CLOUDY    31  23  72 SE6       29.81F WCI  25
6HR MIN TEMP:  28; 6HR MAX TEMP:  32;

$$

IAZ064-065-067-068-078-111300-
   EAST CENTRAL IOWA

CITY           SKY/WX    TMP DP  RH WIND       PRES   REMARKS
DAVENPORT      CLOUDY    31  24  75 S13       29.90F WCI  21
6HR MIN TEMP:  23; 6HR MAX TEMP:  31;

IOWA CITY      CLOUDY    33  25  72 SE3       29.88F
6HR MIN TEMP:  29; 6HR MAX TEMP:  33;

MT. PLEASANT * PTCLDY    30  24  78 CALM      29.90F
MUSCATINE *    CLOUDY    32  25  74 S7        29.89F WCI  26
QUAD CITIES    CLOUDY    32  25  75 S9        29.90F WCI  24
6HR MIN TEMP:  23; 6HR MAX TEMP:  32;

$$

IAZ062-063-075>077-085>089-095>099-111300-
   SOUTHEAST IOWA

CITY           SKY/WX    TMP DP  RH WIND       PRES   REMARKS
BURLINGTON     CLOUDY    31  26  82 S7        29.91F WCI  24
6HR MIN TEMP:  27; 6HR MAX TEMP:  32;

FAIRFIELD *    CLOUDY    32  25  74 SE5       29.87F WCI  27
FORT MADISON * PTCLDY    30  27  86 S8        29.91F WCI  23
KEOKUK *       PTCLDY    32  27  80 S5        29.92F WCI  27
OSKALOOSA *      N/A     30  25  81 S8        29.85F WCI  23
OTTUMWA        CLOUDY    33  25  72 S10       29.85F WCI  25
6HR MIN TEMP:  28; 6HR MAX TEMP:  34;

WASHINGTON *   CLOUDY    32  27  80 S10       29.88F WCI  24
$$

ABBREVIATIONS USED IN REMARKS
   TC - TEMPERATURES IN CELSIUS
  WCI - WIND CHILL INDEX
   HX - HEAT INDEX
  VSB - VISIBILITY
$$





USA.gov is the U.S. government's official web portal to all federal, state and local government web resources and services.